Wind_Speed
2 3 4 5 5 5 5 6 6 6 6 6 7 6 5 5 4 4 4 4 4 4 4 4 3 4 4 4 4 4 4 5 5 6 6 6 6 6 6 6 6 6 7
2 3 4 4 5 5 5 5 6 6 7 7 7 7 7 6 6 6 6 6 6 6 5 5 5 5 5 5 5 5 5 6 6 6 7 8 8 7 7 7 7 8 8
1 1 2 3 3 4 4 5 6 6 6 7 7 7 7 7 6 7 6 7 7 7 7 6 7 6 6 6 6 6 6 6 6 7 8 8 8 8 8 8 9 9 9
2 1 1 2 2 3 3 4 5 6 7 7 8 8 8 8 7 8 8 8 8 8 8 7 7 7 7 7 8 8 8 8 8 8 8 9 9 9 9 9 10 10 11
2 2 2 2 3 3 4 4 5 6 7 8 8 7 7 8 8 8 8 8 8 8 9 8 8 8 8 9 9 9 9 9 9 9 9 10 10 10 10 10 11 11 11
3 3 3 2 4 5 5 5 5 5 6 7 8 8 8 9 9 9 9 9 9 9 9 10 10 10 10 10 10 10 10 10 10 10 11 11 11 11 11 12 12 12 12
4 4 4 3 4 4 5 5 6 6 6 7 8 8 9 9 9 9 10 10 10 11 10 10 10 10 10 11 11 11 12 12 11 12 12 11 11 12 12 12 12 12 13
4 4 4 3 4 5 5 5 6 7 7 7 7 8 8 9 9 9 9 10 10 11 11 11 11 12 12 11 12 12 13 13 12 12 12 13 13 13 13 13 13 13 14
6 5 5 6 6 6 6 6 7 7 7 8 8 9 9 10 9 10 10 11 11 11 12 12 12 13 12 12 12 12 12 12 12 12 13 14 14 14 14 14 14 15 15
7 7 7 7 7 7 6 7 7 7 7 7 8 9 9 10 10 10 11 11 11 12 13 13 13 13 13 13 13 12 13 13 13 13 14 14 14 15 15 15 15 16 17
8 9 8 8 8 7 7 8 8 8 8 8 8 8 8 9 9 10 10 11 11 11 12 12 12 12 12 12 13 13 14 14 15 15 14 15 15 15 15 16 16 17 17
10 10 10 10 9 9 8 8 8 8 9 8 8 8 8 9 9 9 10 11 11 11 11 12 13 13 14 14 14 14 14 15 15 15 15 15 15 16 16 16 17 17 17
11 11 11 11 11 11 10 10 10 9 9 9 9 9 9 10 10 11 11 12 12 12 13 13 13 14 14 14 14 14 15 15 16 16 16 16 17 17 18 18 18 18 19
12 12 12 12 12 13 12 12 11 11 10 10 10 11 11 11 12 12 13 13 13 13 14 14 14 14 14 14 14 15 15 16 16 16 17 17 18 18 19 20 20 20 21
14 13 13 13 14 13 13 13 13 12 12 12 12 13 13 13 14 14 14 15 14 14 14 15 15 15 14 15 15 15 16 16 17 18 18 18 19 19 20 21 21 22 22
16 15 14 15 15 14 14 14 14 14 14 14 14 14 15 15 15 15 15 16 16 16 16 16 16 16 16 16 16 17 17 17 18 19 19 19 20 21 21 22 22 22 23
17 17 16 16 16 16 16 16 16 16 16 16 16 16 17 17 17 17 17 17 18 18 18 18 18 17 18 18 18 18 19 20 20 20 21 21 22 22 23 23 23 23 23
18 18 19 19 18 18 18 18 18 18 18 18 18 18 18 19 18 19 19 20 20 20 20 20 20 20 19 20 20 20 21 22 22 22 23 23 24 24 24 24 25 24 24
20 21 21 20 20 20 20 20 20 20 20 20 20 20 20 20 19 20 21 21 22 22 22 22 22 22 22 22 22 22 23 23 24 24 25 25 25 25 25 25 26 25 25
22 23 22 22 22 22 21 22 22 22 22 22 22 22 23 22 22 22 22 23 23 23 24 24 23 24 24 24 25 25 25 25 26 26 26 26 26 26 27 27 26 25 25
24 24 24 24 24 24 24 24 24 24 24 24 24 24 24 25 24 24 24 24 25 25 25 25 26 26 26 26 26 27 27 28 28 28 27 27 27 27 27 27 26 26 26
26 26 25 25 25 25 25 25 25 25 26 25 25 26 26 26 27 26 26 26 27 27 28 28 28 28 27 27 27 28 29 29 29 29 29 29 28 27 27 27 27 27 27
27 26 26 27 27 27 27 27 27 27 27 28 27 27 27 28 28 28 28 28 29 29 29 29 29 29 29 30 30 30 31 31 31 31 31 30 29 29 29 29 29 28 28
28 28 28 29 28 28 29 28 28 28 28 28 28 28 29 29 29 30 31 31 31 31 31 31 31 31 32 32 33 32 32 32 32 32 31 30 30 29 29 30 30 29 29
30 30 30 30 29 28 28 29 29 30 29 29 29 29 30 31 31 32 32 32 32 32 32 32 33 33 33 33 34 34 34 34 34 33 32 31 30 30 29 29 29 30 29
32 32 32 31 30 29 29 30 31 31 31 31 31 31 31 31 32 32 33 34 34 34 34 34 35 35 35 35 35 35 34 34 34 33 33 33 32 31 31 30 30 30 30
Wind_Direction
160 179 188 188 187 196 205 209 209 211 212 214 219 221 230 239 231 234 240 244 250 249 244 247 260 265 259 263 278 288 285 283 281 280 285 289 294 291 293 293 290 292 292
166 188 200 196 205 215 219 219 217 219 223 225 230 234 240 244 245 250 250 255 256 252 252 252 257 263 265 272 275 276 281 282 282 284 285 287 286 286 288 293 293 292 294
75 182 207 208 216 228 232 229 226 230 234 237 237 238 245 251 251 256 255 255 256 258 258 259 259 260 265 269 269 272 276 281 282 283 289 288 285 284 287 292 291 290 291
32 10 294 235 230 243 245 245 249 248 245 243 243 248 255 259 259 259 257 258 259 262 261 261 262 261 263 267 267 269 275 276 279 284 287 287 287 288 287 288 291 289 288
359 354 320 269 257 264 268 257 255 250 248 248 250 252 257 262 262 266 261 260 260 260 259 261 262 262 264 266 269 268 272 275 276 282 284 285 285 285 286 287 289 290 288
349 344 336 299 269 271 275 266 259 261 260 258 256 259 262 265 264 267 265 261 259 262 263 260 260 261 263 265 271 269 269 275 276 279 281 283 283 284 287 287 286 287 287
347 346 337 316 292 281 288 287 278 272 270 263 263 263 267 268 269 269 268 265 263 264 267 264 263 265 268 269 272 270 270 273 276 279 281 283 287 288 288 289 289 288 288
345 345 351 336 321 309 305 306 291 280 274 272 269 270 273 271 271 270 271 270 268 264 265 267 270 271 270 270 272 272 272 274 277 279 281 283 286 287 285 286 287 289 291
348 340 338 335 328 321 313 302 294 288 283 277 277 278 276 272 270 273 274 272 270 271 270 269 270 272 272 272 272 273 273 273 277 279 281 282 283 285 286 286 287 289 289
342 337 332 331 326 320 313 306 302 294 291 289 286 281 276 275 274 277 279 276 271 271 270 269 274 277 277 276 274 275 275 277 278 282 284 284 284 285 286 288 288 289 287
340 335 331 326 325 324 316 302 299 297 294 293 294 291 286 283 283 283 282 283 282 280 276 274 276 279 280 279 277 275 275 276 281 283 284 285 286 288 289 290 290 290 288
338 337 334 329 325 322 321 316 308 300 298 293 291 292 291 288 289 290 289 285 285 284 283 280 278 278 277 278 278 279 278 281 284 285 286 286 288 290 291 292 291 291 289
330 328 327 325 323 320 318 315 311 306 301 297 293 291 290 288 287 287 289 287 283 282 284 285 284 282 281 283 282 282 282 283 285 286 287 288 290 290 291 291 289 289 290
323 318 317 316 317 316 313 311 310 307 300 295 294 292 291 289 286 286 289 290 289 285 281 281 283 283 280 281 281 283 283 284 286 288 288 288 289 290 290 290 288 288 289
317 314 309 311 312 311 310 307 306 305 298 294 293 292 291 291 287 284 285 286 287 289 285 280 281 281 280 280 282 283 284 285 285 286 287 287 288 290 290 289 289 288 289
313 313 308 307 308 308 308 307 302 300 298 293 291 292 292 289 288 285 283 284 285 285 285 283 280 277 277 279 281 282 283 286 287 287 287 289 289 289 289 289 289 289 288
309 307 306 305 302 301 301 302 301 297 294 292 291 291 292 291 287 282 280 282 285 284 283 281 278 278 279 279 280 283 284 285 286 287 288 289 289 290 289 289 289 289 289
304 304 304 303 299 297 298 298 296 295 293 290 290 290 290 290 288 283 280 281 281 282 283 280 278 279 281 282 283 284 285 285 286 287 288 288 288 290 290 290 290 290 289
299 302 303 300 297 296 296 296 294 292 290 289 289 289 289 289 287 285 284 282 281 281 282 280 278 278 280 282 284 284 284 284 284 285 286 287 287 288 289 288 289 288 287
296 297 298 298 296 295 296 295 294 292 290 289 288 288 288 288 288 286 285 284 282 280 281 282 281 280 280 280 282 284 284 284 284 285 285 286 286 287 287 288 288 288 288
293 294 294 295 295 295 294 294 292 291 290 288 287 288 287 287 288 287 286 285 282 280 280 282 283 283 282 282 282 283 284 285 285 285 286 286 286 285 286 286 287 288 287
290 291 292 293 294 295 293 291 290 289 289 289 287 286 285 284 285 286 285 283 282 282 281 281 283 284 284 284 284 284 286 286 286 286 286 285 285 286 286 286 286 286 287
286 288 289 290 290 292 291 289 288 289 288 287 287 286 284 283 281 282 282 282 281 282 282 281 281 283 285 285 284 284 286 288 286 286 286 286 286 286 286 286 286 285 285
284 285 287 290 289 290 289 288 288 288 290 289 287 285 284 282 280 280 281 282 282 282 282 282 282 282 284 285 286 286 286 287 286 286 286 285 285 285 285 285 285 284 284
281 282 284 285 286 287 288 288 288 288 288 288 287 287 285 282 281 281 281 282 281 281 281 281 282 283 283 284 285 286 285 286 285 285 285 285 285 284 285 285 284 284 284
280 280 280 281 283 284 287 288 288 288 286 286 286 287 289 286 284 283 282 281 281 281 281 282 282 282 282 282 283 284 284 286 287 287 285 284 284 284 284 284 285 284 284
Height
5882 5883 5884 5885 5886 5887 5887 5888 5889 5890 5892 5892 5893 5894 5895 5896 5897 5898 5898 5898 5899 5899 5900 5900 5900 5901 5901 5901 5902 5902 5902 5902 5903 5903 5903 5903 5903 5902 5902 5902 5902 5901 5901
5883 5883 5884 5885 5886 5887 5887 5889 5889 5890 5891 5892 5893 5894 5895 5895 5896 5897 5897 5898 5898 5899 5899 5899 5899 5900 5900 5900 5901 5901 5901 5901 5902 5902 5902 5902 5901 5901 5901 5901 5900 5900 5900
5883 5884 5884 5885 5886 5886 5887 5888 5889 5890 5891 5892 5892 5893 5894 5894 5895 5896 5896 5897 5897 5897 5898 5898 5898 5899 5899 5899 5900 5900 5900 5900 5900 5900 5900 5900 5900 5900 5899 5899 5899 5898 5898
5884 5884 5885 5885 5886 5886 5887 5887 5888 5889 5890 5890 5891 5892 5893 5893 5894 5895 5895 5895 5896 5896 5896 5896 5897 5897 5898 5898 5898 5898 5899 5899 5899 5898 5898 5898 5898 5898 5897 5897 5896 5896 5896
5884 5884 5885 5885 5885 5886 5886 5887 5887 5888 5888 5889 5890 5891 5891 5892 5893 5893 5893 5894 5894 5894 5894 5895 5895 5895 5896 5896 5896 5896 5897 5897 5897 5897 5896 5896 5896 5895 5895 5894 5894 5894 5893
5885 5884 5885 5885 5885 5885 5886 5886 5886 5887 5887 5888 5889 5889 5890 5891 5891 5892 5892 5892 5892 5893 5893 5893 5893 5893 5894 5894 5894 5894 5894 5894 5894 5894 5894 5894 5893 5893 5892 5892 5891 5891 5891
5885 5885 5885 5885 5885 5885 5885 5885 5885 5886 5886 5887 5887 5888 5888 5889 5890 5890 5890 5890 5891 5891 5891 5891 5891 5891 5892 5892 5892 5892 5892 5892 5892 5892 5891 5891 5891 5890 5890 5889 5889 5888 5888
5885 5885 5885 5885 5885 5885 5885 5885 5885 5885 5885 5885 5886 5886 5887 5888 5888 5888 5888 5888 5888 5888 5889 5889 5889 5889 5889 5889 5889 5889 5889 5889 5889 5889 5889 5888 5888 5888 5887 5886 5886 5885 5885
5886 5885 5885 5885 5884 5884 5884 5884 5884 5883 5883 5883 5884 5884 5885 5885 5885 5886 5885 5886 5886 5886 5886 5886 5886 5886 5886 5886 5886 5886 5886 5886 5886 5886 5886 5885 5885 5884 5884 5883 5883 5882 5881
5886 5885 5885 5884 5884 5883 5883 5883 5882 5882 5882 5882 5882 5882 5882 5882 5883 5883 5883 5883 5882 5883 5883 5883 5883 5883 5883 5883 5883 5883 5883 5883 5883 5882 5882 5882 5881 5881 5880 5879 5879 5878 5877
5885 5885 5884 5883 5883 5882 5882 5881 5881 5880 5880 5880 5880 5880 5880 5880 5880 5880 5880 5880 5880 5879 5879 5879 5880 5880 5880 5880 5880 5879 5879 5879 5879 5879 5878 5878 5877 5877 5876 5875 5875 5874 5873
5885 5884 5883 5882 5882 5881 5880 5880 5879 5879 5878 5878 5878 5878 5878 5878 5878 5877 5877 5877 5877 5877 5876 5876 5877 5877 5877 5877 5876 5876 5876 5875 5875 5875 5874 5874 5873 5873 5872 5871 5870 5870 5869
5884 5883 5882 5881 5880 5880 5879 5878 5877 5877 5876 5876 5875 5875 5875 5875 5875 5875 5874 5874 5874 5874 5873 5873 5873 5873 5873 5873 5872 5872 5872 5872 5871 5871 5870 5869 5869 5868 5867 5867 5866 5865 5864
5882 5881 5880 5879 5878 5877 5877 5876 5875 5875 5874 5874 5873 5873 5872 5872 5871 5871 5871 5871 5871 5870 5870 5870 5870 5869 5869 5869 5869 5868 5868 5867 5867 5866 5865 5865 5864 5863 5862 5861 5861 5860 5859
5880 5879 5878 5877 5876 5875 5874 5873 5872 5872 5871 5871 5870 5870 5869 5868 5868 5867 5867 5867 5867 5866 5865 5866 5866 5865 5865 5865 5864 5864 5863 5863 5862 5861 5860 5860 5859 5858 5857 5856 5855 5854 5853
5877 5876 5875 5874 5873 5872 5871 5870 5869 5868 5868 5867 5867 5866 5865 5865 5864 5863 5863 5862 5862 5862 5862 5861 5861 5861 5861 5861 5860 5859 5858 5858 5857 5856 5855 5855 5854 5853 5852 5850 5849 5848 5846
5874 5873 5872 5870 5869 5868 5867 5867 5866 5865 5864 5863 5862 5862 5861 5860 5860 5859 5858 5858 5858 5857 5857 5856 5856 5856 5855 5855 5855 5854 5853 5853 5852 5851 5850 5849 5848 5847 5846 5845 5843 5842 5840
5870 5869 5868 5867 5865 5864 5863 5862 5861 5860 5859 5858 5858 5857 5856 5856 5855 5854 5853 5853 5852 5852 5852 5851 5850 5850 5850 5849 5849 5849 5848 5847 5846 5845 5844 5843 5842 5841 5840 5838 5837 5835 5834
5866 5865 5864 5862 5861 5859 5859 5858 5856 5855 5854 5854 5853 5852 5851 5850 5850 5849 5848 5847 5847 5846 5846 5845 5845 5844 5844 5844 5843 5843 5842 5841 5840 5839 5838 5836 5835 5834 5833 5831 5830 5828 5827
5861 5860 5858 5857 5855 5854 5853 5852 5851 5850 5849 5848 5847 5846 5845 5845 5844 5843 5842 5842 5840 5840 5839 5839 5838 5838 5838 5837 5837 5836 5835 5834 5833 5832 5831 5829 5828 5827 5826 5824 5822 5821 5819
5855 5854 5852 5851 5849 5848 5847 5845 5844 5843 5842 5841 5841 5840 5839 5838 5838 5837 5836 5835 5834 5833 5833 5832 5832 5831 5831 5830 5830 5829 5828 5827 5826 5825 5824 5822 5821 5819 5818 5816 5815 5813 5812
5849 5847 5846 5844 5843 5841 5840 5839 5837 5836 5835 5834 5834 5833 5832 5832 5831 5830 5829 5829 5828 5827 5826 5825 5825 5824 5824 5823 5822 5821 5820 5820 5818 5817 5816 5815 5813 5811 5810 5808 5807 5806 5804
5842 5840 5839 5837 5836 5834 5833 5832 5830 5829 5828 5827 5826 5825 5825 5824 5823 5823 5822 5821 5820 5819 5818 5818 5817 5817 5816 5815 5814 5813 5812 5811 5810 5808 5807 5806 5804 5803 5801 5800 5799 5797 5796
5833 5832 5831 5830 5828 5827 5825 5824 5823 5822 5821 5819 5818 5817 5816 5816 5815 5815 5814 5813 5812 5811 5810 5810 5809 5808 5808 5806 5805 5804 5803 5801 5800 5799 5798 5797 5795 5794 5793 5791 5790 5789 5787
5825 5824 5823 5822 5821 5819 5818 5817 5815 5814 5813 5811 5810 5809 5808 5807 5806 5805 5805 5804 5803 5802 5801 5801 5800 5799 5798 5797 5796 5795 5794 5792 5791 5790 5788 5787 5786 5785 5784 5783 5781 5780 5778
5816 5815 5814 5813 5812 5811 5810 5809 5807 5806 5804 5803 5801 5800 5799 5798 5797 5796 5795 5795 5794 5793 5792 5791 5790 5790 5789 5787 5786 5785 5784 5783 5781 5781 5779 5778 5777 5776 5775 5774 5772 5771 5769